Waarnemingen

Advertentie
Mijn weer
P11-B, Nederland (6203): temperatuur & dauwpunt: 15.01.2017 01:00:00 - 21.01.2017 01:00:00 (CET)P11-B, Nederland (6203): windsnelheid & windstoten: 15.01.2017 01:00:00 - 21.01.2017 01:00:00 (CET)P11-B, Nederland (6203): windrichting: 15.01.2017 01:00:00 - 21.01.2017 01:00:00 (CET)P11-B, Nederland (6203): luchtdruk: 15.01.2017 01:00:00 - 21.01.2017 01:00:00 (CET)P11-B, Nederland (6203): zicht: 15.01.2017 01:00:00 - 21.01.2017 01:00:00 (CET)
Datum & Tijd tt [°C] td [°C] ff [km/u] ff [kn] fx [km/u] fx [kn] dd ppp [hPa] vv [km]
21.01.2017 01:00:00 5,1 1,5 33 18 - - ONO 1033,3 31
21.01.2017 00:00:00 5,1 1,4 37 20 40 21 ONO 1033,7 10
20.01.2017 23:00:00 5,4 1,4 39 21 40 21 ONO 1033,7 10
20.01.2017 22:00:00 5,3 0,9 39 21 40 21 ONO 1034,0 10
20.01.2017 21:00:00 5,3 0,2 41 22 40 21 ONO 1034,0 10
20.01.2017 20:00:00 5,6 -4,8 37 20 36 19 ONO 1034,1 10
20.01.2017 19:00:00 5,9 -6,1 35 19 36 19 ONO 1034,0 10
20.01.2017 18:00:00 6,0 -4,5 34 18 32 18 NO 1034,1 10
20.01.2017 17:00:00 6,0 -3,8 28 15 29 16 ONO 1034,2 10
20.01.2017 16:00:00 5,9 -3,2 26 14 25 14 ONO 1034,4 10
20.01.2017 15:00:00 5,7 -4,2 22 12 22 12 ONO 1034,5 10
20.01.2017 14:00:00 5,5 -5,1 22 12 22 12 ONO 1035,1 10
20.01.2017 13:00:00 5,3 -6,2 21 11 22 12 ONO 1035,5 10
20.01.2017 12:00:00 5,3 -6,3 22 12 22 12 ONO 1035,9 10
20.01.2017 11:00:00 5,1 -5,9 21 11 22 12 O 1036,1 10
20.01.2017 10:00:00 5,0 -6,2 18 10 22 12 ONO 1036,2 10
20.01.2017 09:00:00 4,9 -6,7 18 10 22 12 O 1036,2 10
20.01.2017 08:00:00 4,9 -5,6 21 11 22 12 O 1036,0 10
20.01.2017 07:00:00 4,8 -5,0 21 11 22 12 ONO 1035,9 10
20.01.2017 06:00:00 5,2 -5,3 18 10 18 10 ONO 1036,0 10
20.01.2017 05:00:00 5,2 -5,5 16 9 18 10 ONO 1036,3 10
20.01.2017 04:00:00 5,1 -4,9 16 9 18 10 ONO 1036,3 10
20.01.2017 03:00:00 5,0 -4,8 16 9 18 10 ONO 1036,4 10
20.01.2017 02:00:00 5,1 -5,5 16 9 18 10 ONO 1036,6 10
20.01.2017 01:00:00 5,2 -4,6 16 9 18 10 ONO 1036,9 10
20.01.2017 00:00:00 5,2 -4,3 16 9 18 10 ONO 1037,2 10
19.01.2017 23:00:00 5,2 -3,7 16 9 18 10 ONO 1037,3 10
19.01.2017 22:00:00 5,3 -3,9 15 8 18 10 ONO 1037,4 10
19.01.2017 21:00:00 5,1 -4,5 15 8 18 10 ONO 1037,6 10
19.01.2017 20:00:00 5,1 -6,1 16 9 18 10 O 1037,7 10
19.01.2017 19:00:00 5,0 -6,6 15 8 18 10 ONO 1037,4 10
19.01.2017 18:00:00 4,9 -6,7 15 8 14 8 ONO 1037,3 10
19.01.2017 17:00:00 4,7 -6,3 13 7 18 10 ONO 1037,4 10
19.01.2017 16:00:00 4,4 -6,8 11 6 14 8 ONO 1037,4 44
19.01.2017 15:00:00 4,2 -5,3 11 6 29 16 ONO 1037,6 10
19.01.2017 14:00:00 4,1 -4,1 8 4 11 6 ONO 1037,8 10
19.01.2017 13:00:00 4,0 -3,8 8 4 11 6 O 1038,2 10
19.01.2017 12:00:00 4,0 -3,6 8 4 11 6 O 1038,7 10
19.01.2017 11:00:00 4,1 -4,0 13 7 18 10 O 1038,7 10
19.01.2017 10:00:00 4,1 -4,1 15 8 14 8 O 1038,7 10
19.01.2017 09:00:00 3,9 -3,9 11 6 18 10 O 1038,3 17
19.01.2017 08:00:00 3,9 -3,9 11 6 18 10 O 1037,9 19
19.01.2017 07:00:00 4,1 -3,7 7 4 11 6 ONO 1037,8 24
19.01.2017 06:00:00 3,9 -3,5 7 4 11 6 ONO 1038,0 20
19.01.2017 05:00:00 3,9 -4,1 8 4 11 6 O 1038,2 10
19.01.2017 04:00:00 3,8 -3,7 7 4 11 6 NO 1038,3 27
19.01.2017 03:00:00 3,6 -3,5 7 4 11 6 ONO 1038,6 25
19.01.2017 02:00:00 3,4 -2,4 7 4 11 6 O 1038,5 14
19.01.2017 01:00:00 3,4 -2,4 9 5 14 8 O 1038,6 10
19.01.2017 00:00:00 3,5 -2,4 9 5 14 8 ONO 1039,0 10
18.01.2017 23:00:00 3,4 -2,2 9 5 11 6 O 1039,0 10
18.01.2017 22:00:00 3,2 -2,2 8 4 11 6 ONO 1038,9 10
18.01.2017 21:00:00 3,0 -1,9 5 3 7 4 O 1038,9 10
18.01.2017 20:00:00 2,6 -1,4 9 5 14 8 OZO 1039,3 8
18.01.2017 19:00:00 2,6 -1,3 8 4 14 8 ZO 1039,2 8
18.01.2017 18:00:00 2,5 -1,7 9 5 11 6 ZO 1039,3 7
18.01.2017 17:00:00 2,7 -1,9 5 3 11 6 - 1039,3 9
18.01.2017 16:00:00 2,7 -1,7 5 3 11 6 ZZO 1039,4 10
18.01.2017 15:00:00 2,7 -2,1 8 4 11 6 ZZO 1039,5 10
18.01.2017 14:00:00 2,5 -2,2 9 5 14 8 ZZO 1039,4 10
18.01.2017 13:00:00 2,2 -2,0 11 6 14 8 ZZO 1040,0 10
18.01.2017 12:00:00 2,2 -1,6 9 5 18 10 - 1040,2 10
18.01.2017 11:00:00 2,2 -1,9 11 6 18 10 - 1040,3 10
18.01.2017 10:00:00 2,2 -2,1 16 9 22 12 ZZO 1040,0 10
18.01.2017 09:00:00 2,6 -3,5 15 8 18 10 ZZO 1039,5 10
18.01.2017 08:00:00 2,7 -3,8 16 9 18 10 ZZO 1039,0 10
18.01.2017 07:00:00 2,9 -4,5 13 7 18 10 ZO 1038,8 10
18.01.2017 06:00:00 3,0 -3,9 9 5 14 8 ZZO 1038,8 10
18.01.2017 05:00:00 3,0 -3,9 11 6 14 8 ZZO 1039,1 10
18.01.2017 04:00:00 3,2 -4,9 9 5 14 8 ZO 1039,3 10
18.01.2017 03:00:00 3,2 -5,1 11 6 14 8 ZZO 1039,4 10
18.01.2017 02:00:00 3,0 -4,5 13 7 18 10 ZZO 1039,4 10
18.01.2017 01:00:00 2,9 -4,4 16 9 22 12 ZZO 1039,3 10
18.01.2017 00:00:00 3,1 -5,1 21 11 22 12 ZZO 1039,2 10
17.01.2017 23:00:00 3,0 -5,0 16 9 22 12 ZZO 1039,2 10
17.01.2017 22:00:00 2,9 -4,2 18 10 22 12 ZZO 1039,1 10
17.01.2017 21:00:00 2,9 -4,3 16 9 22 12 ZZO 1039,2 10
17.01.2017 20:00:00 2,8 -3,5 18 10 22 12 ZZO 1038,7 10
17.01.2017 19:00:00 2,4 -2,4 21 11 22 12 ZZO 1038,4 10
17.01.2017 18:00:00 2,2 -1,9 21 11 25 14 ZZO 1038,1 10
17.01.2017 17:00:00 1,5 -2,1 16 9 22 12 ZZO 1037,9 9
17.01.2017 16:00:00 0,9 -2,4 15 8 22 12 - 1038,4 7
17.01.2017 15:00:00 0,9 -2,6 18 10 22 12 ZO 1038,0 6
17.01.2017 14:00:00 1,2 -2,6 18 10 25 14 ZZO 1038,0 7
17.01.2017 13:00:00 1,0 -2,8 18 10 22 12 ZO 1038,2 9
17.01.2017 12:00:00 1,3 -2,7 15 8 22 12 ZZO 1038,3 8
17.01.2017 11:00:00 1,5 -2,9 16 9 22 12 ZO 1038,1 10
17.01.2017 10:00:00 - -2,5 15 8 18 10 ZO 1037,5 9
17.01.2017 09:00:00 - -3,1 16 9 22 12 - 1036,8 10
17.01.2017 08:00:00 - -3,3 13 7 18 10 - 1036,1 10
17.01.2017 07:00:00 - -2,9 11 6 - - ZO 1035,8 10
17.01.2017 06:00:00 - -3,2 15 8 18 10 OZO 1035,1 10
17.01.2017 05:00:00 - -2,9 16 9 22 12 OZO 1035,4 9
17.01.2017 04:00:00 - -2,9 16 9 - - - 1034,8 10
17.01.2017 03:00:00 - -3,1 21 11 22 12 OZO 1034,7 10
17.01.2017 02:00:00 - -3,0 18 10 22 12 O 1034,2 10
17.01.2017 01:00:00 - -3,1 18 10 22 12 O 1033,7 10
17.01.2017 00:00:00 - -3,2 18 10 22 12 O 1033,6 10
16.01.2017 23:00:00 - -3,5 21 11 22 12 O 1033,3 10
16.01.2017 22:00:00 - -2,4 21 11 25 14 O 1032,8 10
16.01.2017 21:00:00 - -2,1 24 13 25 14 O 1032,0 10
16.01.2017 20:00:00 - -5,0 21 11 25 14 ONO 1031,2 10
16.01.2017 19:00:00 - -3,7 21 11 25 14 ONO 1030,4 10
16.01.2017 18:00:00 - -4,1 18 10 22 12 ONO 1030,0 10
16.01.2017 17:00:00 4,0 -2,0 18 10 22 12 ONO 1029,3 10
16.01.2017 16:00:00 4,3 -1,7 18 10 22 12 ONO 1028,9 10
16.01.2017 15:00:00 4,6 -0,9 15 8 18 10 ONO 1028,5 10
16.01.2017 14:00:00 4,6 -1,8 11 6 14 8 NO 1028,3 10
16.01.2017 13:00:00 4,6 -0,1 15 8 22 12 O 1028,5 10
16.01.2017 12:00:00 4,6 0,5 16 9 22 12 ONO 1028,1 10
16.01.2017 11:00:00 5,1 -0,6 15 8 18 10 NO 1027,7 10
16.01.2017 10:00:00 5,3 -1,0 15 8 25 14 NO 1027,3 10
16.01.2017 09:00:00 4,8 0,9 31 17 32 18 NO 1026,8 10
16.01.2017 08:00:00 5,3 0,0 13 7 22 12 NO 1026,3 10
16.01.2017 07:00:00 5,3 1,7 22 12 29 16 ONO 1025,8 10
16.01.2017 06:00:00 5,6 1,7 29 16 32 18 NO 1025,4 10
16.01.2017 05:00:00 5,7 0,5 13 7 18 10 N 1025,4 10
16.01.2017 04:00:00 5,7 0,1 15 8 22 12 NNO 1025,2 10
16.01.2017 03:00:00 5,5 1,5 13 7 18 10 N 1024,8 10
16.01.2017 02:00:00 5,7 1,1 11 6 18 10 N 1024,6 10
16.01.2017 01:00:00 5,5 1,3 9 5 14 8 N 1024,7 10
16.01.2017 00:00:00 5,5 2,3 9 5 14 8 NNW 1024,3 10
15.01.2017 23:00:00 5,3 2,2 11 6 14 8 NW 1024,2 10
15.01.2017 22:00:00 4,9 2,4 4 2 7 4 - 1023,7 10
15.01.2017 21:00:00 4,7 2,7 4 2 7 4 - 1023,2 10
15.01.2017 20:00:00 4,7 2,4 5 3 14 8 ZZW 1022,9 10
15.01.2017 19:00:00 4,4 2,4 18 10 22 12 Z 1022,3 10
15.01.2017 18:00:00 4,4 2,5 21 11 22 12 ZZO 1021,6 10
15.01.2017 17:00:00 4,6 2,2 13 7 18 10 ZO 1021,3 10
15.01.2017 16:00:00 4,3 2,0 13 7 18 10 ZO 1021,0 10
15.01.2017 15:00:00 4,1 2,0 11 6 14 8 - 1020,8 10
15.01.2017 14:00:00 3,7 1,5 13 7 14 8 O 1021,0 10
15.01.2017 13:00:00 3,7 1,5 13 7 18 10 NO 1020,9 10
15.01.2017 12:00:00 4,6 2,2 5 3 14 8 O 1021,1 10
15.01.2017 11:00:00 5,1 1,5 4 2 14 8 - 1021,2 10
15.01.2017 10:00:00 5,2 1,5 8 4 18 10 - 1021,1 10
15.01.2017 09:00:00 5,6 0,9 13 7 22 12 NW 1021,2 10
15.01.2017 08:00:00 4,1 0,7 18 10 43 23 NNW 1020,8 7
15.01.2017 07:00:00 4,4 1,0 15 8 36 19 N 1020,6 10
15.01.2017 06:00:00 5,7 -0,5 26 14 32 18 NW 1020,1 10
15.01.2017 05:00:00 5,1 1,3 29 16 36 19 WNW 1020,0 10
15.01.2017 04:00:00 5,8 -1,3 29 16 - - NW 1019,8 10
15.01.2017 03:00:00 5,9 -0,9 41 22 50 27 NNW 1019,5 10
15.01.2017 02:00:00 5,1 -0,4 42 23 50 27 NNW 1019,1 10
15.01.2017 01:00:00 5,4 -1,7 48 26 50 27 NNW 1018,8 10

tt = temperatuur
td = dauwpunt
ff = windsnelheid
fx = windstoten
dd = windrichting
ppp = luchtdruk
vv = zicht

Weerstations in de omgeving